AirNav   Get $300 off a Bose A20
 
 879 users online  

2OK2 Twin Lakes Airport
Midwest City, Oklahoma, USA

GOING TO MIDWEST CITY?


FAA INFORMATION EFFECTIVE 28 MARCH 2019

Location

FAA Identifier: 2OK2
Lat/Long: 35-19-45.2390N / 097-16-11.1080W
35-19.753983N / 097-16.185133W
35.3292331 / -97.2697522
(estimated)
Elevation: 1199 ft. / 365 m (estimated)
Variation: 07E (1985)
From city: 10 miles SE of MIDWEST CITY, OK
Time zone: UTC -5 (UTC -6 during Standard Time)
Zip code: 73165

Airport Operations

Airport use: Private use. Permission required prior to landing
Control tower: no
ARTCC: FORT WORTH CENTER
FSS: MC ALESTER FLIGHT SERVICE STATION
Attendance: UNATNDD
Wind indicator: yes
Segmented circle: no
Lights: ACTVT LIRL RY N/S - 122.7.

Airport Communications

UNICOM: 122.7
WX AWOS-3 at OUN (11 nm SW): 119.55 (405-325-7302)
WX AWOS-3 at SNL (16 nm E): 118.275 (405-878-1745)
WX ASOS at OKC (17 nm W): PHONE 405-686-4711

Nearby radio navigation aids

VOR radial/distance  VOR name  Freq  Var
IRWr089/16.7WILL ROGERS VORTAC114.1007E
PWAr116/22.1WILEY POST VOR/DME113.4008E

 
NDB name  Hdg/Dist  Freq  Var  ID
MULDROW348/18.151206EHMY .... -- -.--
SEMINOLE271/29.327806ESRE ... .-. .

Airport Services

Airframe service: NONE
Powerplant service: NONE

Runway Information

Runway N/S

Dimensions: 2702 x 30 ft. / 824 x 9 m
Surface: concrete
Runway edge lights: low intensity
RUNWAY N  RUNWAY S
Traffic pattern: rightleft
Obstructions: 300 ft. pline, 4000 ft. from runwaynone

Airport Ownership and Management from official FAA records

Ownership: Privately-owned
Owner: PILOTS HAVEN AIRPORT INC
13800 CHANDELLE DRIVE
NEWALLA, OK 74857
Phone 405-819-6671
Manager: SANDY SHARPE
13800 SKY HARBOR WAY
NEWALLA, OK 74857
Phone 405-819-6671

Airport Operational Statistics

Aircraft based on the field: 16
Single engine airplanes: 15
Multi engine airplanes: 1
    

Additional Remarks

SHARP DROP OFF AT EACH END OF RWY.
HIGH LINE AT RIGHT ANGLE TO RWY-APRX 3/4MI FM S END OF RWY.
AIRPORT TRAFFIC REMAIN EAST OF RY.
FOR CD CTC OKE CITY APCH AT 405-681-5683.

Instrument Procedures

There are no published instrument procedures at 2OK2.

Some nearby airports with instrument procedures:

KTIK - Tinker Air Force Base (8 nm NW)
KOUN - University of Oklahoma Westheimer Airport (11 nm SW)
1K4 - David Jay Perry Airport (14 nm SW)
KSNL - Shawnee Regional Airport (16 nm E)
KOKC - Will Rogers World Airport (17 nm W)
KHMY - Muldrow Army Heliport (18 nm S)
 
Loc | Ops | Rwys | IFR | FBO | Links
Com | Nav | Svcs | Stats | Notes
Area around 2OK2 (Twin Lakes Airport)
 
Road maps at: MapQuest Bing Google
 
Aerial photo
WARNING: Photo may not be current or correct
Aerial photo of 2OK2 (Twin Lakes Airport)
Do you have a better or more recent aerial photo of Twin Lakes Airport that you would like to share? If so, please send us your photo.

 
Sectional chart

 
Airport distance calculator
Flying to Twin Lakes Airport? Find the distance to fly.

From to 2OK2

Sunrise and sunset
Times for 21-Apr-2019
 Local
(UTC-5)
 Zulu
(UTC)
Morning civil twilight06:2411:24
Sunrise06:5011:50
Sunset20:0601:06
Evening civil twilight20:3201:32

Current date and time
Zulu (UTC)  21-Apr-2019 21:03:42
Local (UTC-5)  21-Apr-2019 16:03:42
 
METAR
KTIK 
7nm NW 
212056Z AUTO 18019G26KT 10SM FEW180 29/12 A2980 RMK AO2 PK WND 17029/24 SLP087 T02860120
KOUN 
11nm SW 
212045Z 16022G28KT 10SM CLR 26/13 A2979
KSNL 
16nm E 
212055Z AUTO 18022G28KT 10SM CLR 28/11 A2982 RMK AO2 T02760109
KOKC 
16nm W 
212052Z 19023G31KT 10SM FEW150 SCT200 SCT250 27/13 A2979 RMK AO2 PK WND 18034/2041 SLP074 VIRGA SW-NW-NE T02670133 58014
TAF
KTIK 
7nm NW 
211700Z 2117/2223 18020G30KT 9999 SCT200 510103 QNH2978INS TEMPO 2118/2124 18025G35KT 510004 BECMG 2206/2207 18012G20KT 9999 SCT150 510203 QNH2985INS BECMG 2210/2211 19012KT 9999 BKN030 BKN150 510252 QNH2986INS BECMG 2216/2217 19012G18KT 9999 SCT150 510103 QNH2998INS TX29/2121Z TN17/2211Z
KOUN 
11nm SW 
211742Z 2118/2218 18020G28KT P6SM SCT180 FM220100 17016KT P6SM SCT120 FM220400 18014KT P6SM SCT120 WS015/19050KT FM220900 18014KT P6SM BKN025 WS015/19050KT FM221400 18014KT P6SM OVC012
KOKC 
16nm W 
211742Z 2118/2218 18022G31KT P6SM SCT180 FM220100 17016KT P6SM SCT120 FM220400 18014KT P6SM SCT120 WS015/19050KT FM220900 18014KT P6SM BKN025 WS015/19050KT FM221400 19015KT P6SM OVC012
NOTAMs
Click for the latest NOTAMs
NOTAMs are issued by the DoD/FAA and will open in a separate window not controlled by AirNav.

 

 
 

Would you like to see your business listed on this page?

 If your business provides an interesting product or service to pilots, flight crews, aircraft, or users of the Twin Lakes Airport, you should consider listing it here.  To start the listing process, click on the button below
 
Add a business
 

Other Pages about Twin Lakes Airport

Update a link
 
Copyright © AirNav, LLC. All rights reserved. Privacy Policy  Contact